EHI
0 0 0 0 0 0 0 0 0 0 0 0 1 3 5 2 0 0 0 0 0 0 0 0 0 0 0 0 0 0 0 0 0 0 0 0 0 0
0 0 0 0 0 0 0 0 0 0 0 0 0 1 2 1 0 0 0 0 0 0 0 0 0 0 0 0 0 0 0 0 0 0 0 0 0 0
0 0 0 0 0 0 0 0 0 0 0 0 0 0 0 0 0 0 0 0 0 0 0 0 0 0 0 0 0 0 0 0 0 0 0 0 0 0
0 0 0 0 0 0 0 0 0 0 0 0 0 0 0 0 0 0 0 0 0 0 0 0 0 0 0 0 0 0 0 0 0 0 0 0 0 0
0 0 0 0 0 0 0 1 0 0 0 0 0 0 0 0 0 0 0 0 0 0 0 0 0 0 0 0 0 0 0 0 0 0 0 0 0 0
0 0 0 0 0 0 0 0 0 0 0 0 0 0 0 0 0 0 0 0 0 0 0 0 0 0 0 0 0 0 0 0 0 0 0 0 0 0
0 0 0 0 0 0 0 0 0 0 0 0 0 0 0 0 0 0 0 0 0 0 0 0 0 0 0 0 0 0 0 0 0 0 0 0 0 0
0 0 0 0 0 0 0 0 0 0 0 0 0 0 0 0 0 0 0 0 0 0 0 0 0 0 0 0 0 0 0 0 0 0 0 0 0 0
0 0 0 0 0 0 0 0 0 0 0 0 0 0 0 0 0 0 0 0 0 0 0 0 0 0 0 0 0 0 0 0 0 0 0 0 0 0
0 0 0 0 0 0 0 0 0 0 0 0 0 0 0 0 0 0 0 0 0 0 0 0 0 0 0 0 0 0 0 0 0 0 0 0 0 0
0 0 0 0 0 0 0 0 0 0 0 0 0 0 0 0 0 0 0 0 0 0 0 0 0 0 0 0 0 0 0 0 0 0 0 0 0 0
0 0 0 0 0 0 0 0 0 0 0 0 0 0 0 0 0 0 0 0 0 0 0 0 0 0 0 0 0 0 0 0 0 0 0 0 0 0
0 0 0 0 0 0 0 0 0 0 0 0 0 0 0 0 0 0 0 0 0 0 0 0 0 0 0 0 0 0 0 0 0 0 0 0 0 0
0 0 0 0 0 0 0 0 0 0 0 0 0 0 0 0 0 0 0 0 0 0 0 0 0 0 0 0 0 0 0 0 0 0 0 0 0 0
0 0 0 0 0 0 0 0 0 0 0 0 0 0 0 0 0 0 0 0 0 0 0 0 0 0 0 0 0 0 0 0 0 0 0 0 0 0
0 0 0 0 0 0 0 0 0 0 0 0 0 0 0 0 0 0 0 0 0 0 0 0 0 0 0 0 0 0 0 0 0 0 0 0 0 0
0 0 0 0 0 0 0 0 0 0 0 0 0 0 0 0 0 0 0 0 0 0 0 0 0 0 0 0 0 0 0 0 0 0 0 0 0 0
0 0 0 0 0 0 0 0 0 0 0 0 0 0 0 0 0 0 0 0 0 0 0 0 0 0 0 0 0 0 0 0 0 0 0 0 0 0
0 0 0 0 0 0 0 0 0 0 0 0 0 0 0 0 0 0 0 0 0 0 0 0 0 0 0 0 0 0 0 0 0 0 0 0 0 0
0 0 0 0 0 0 0 0 0 0 0 0 0 0 0 0 0 0 0 0 0 0 0 0 0 0 0 0 0 0 0 0 0 0 0 0 0 0
0 0 0 0 0 0 0 0 0 0 0 0 0 0 0 0 0 0 0 0 0 0 0 0 0 0 0 0 0 0 0 0 0 0 0 0 0 0
0 0 0 0 0 0 0 0 0 0 0 0 0 0 0 0 0 0 0 0 0 0 0 0 0 0 0 0 0 0 0 0 0 0 0 0 0 0
0 0 0 0 0 0 0 0 0 0 0 0 0 0 0 0 0 0 0 0 0 0 0 0 0 0 0 0 0 0 0 0 0 0 0 0 0 0
Wind_Speed
6 7 5 5 5 5 2 1 1 2 3 2 1 1 3 5 3 4 5 7 10 12 13 15 15 15 14 13 12 12 11 11 12 12 12 12 12 13
5 7 6 5 4 3 3 2 1 2 3 2 0 1 3 5 4 5 6 10 10 11 12 12 12 12 12 11 11 11 10 10 10 11 11 11 11 12
6 5 4 4 4 3 3 3 3 3 4 4 2 1 2 4 4 5 7 6 6 10 11 11 11 12 12 12 11 11 11 11 11 11 12 12 12 12
3 3 4 5 5 4 4 4 4 4 4 5 3 2 3 5 5 5 6 7 6 12 14 14 14 14 14 13 13 13 13 13 13 12 12 12 12 13
4 5 6 6 6 6 5 4 3 4 3 4 3 2 2 4 5 4 4 2 5 9 16 16 15 15 14 14 14 14 14 14 13 13 13 13 12 12
5 6 7 7 7 8 6 6 5 3 3 3 3 2 3 4 3 3 1 0 2 2 3 8 12 15 15 14 14 15 15 15 14 13 13 12 12 12
6 6 6 7 7 7 7 7 7 4 3 2 2 1 2 4 3 2 2 1 2 2 2 1 3 5 8 12 15 15 14 14 13 13 13 13 13 13
5 4 5 7 8 7 5 6 8 7 6 4 3 3 3 2 2 2 2 1 1 1 2 2 2 2 2 1 3 8 11 11 12 12 13 13 13 14
5 5 6 7 8 7 3 2 6 10 9 7 7 6 4 3 2 2 2 2 1 1 2 2 2 2 2 4 5 3 1 4 6 9 11 12 13 13
7 7 7 8 11 8 5 5 6 7 8 7 6 5 4 3 3 2 2 1 1 0 1 1 1 1 1 1 1 1 1 2 3 5 7 9 10 11
8 9 8 8 14 14 8 7 6 4 5 7 6 4 3 2 1 1 1 1 0 0 1 1 1 1 2 2 2 3 3 4 3 4 5 7 8 8
5 7 11 11 13 14 8 7 7 7 8 3 2 2 3 2 2 1 1 1 0 0 1 1 1 1 2 3 4 3 3 4 4 4 5 5 6 4
4 5 6 12 12 12 9 5 6 7 7 6 0 1 2 3 2 1 2 1 1 1 1 1 1 1 1 0 2 3 3 3 3 3 4 5 6 3
6 5 5 10 11 10 7 10 14 11 5 5 4 4 3 2 1 1 1 1 1 1 2 2 1 1 1 1 1 1 2 3 3 3 3 4 4 3
4 4 5 8 9 6 7 10 9 5 5 5 4 3 2 1 2 1 2 2 1 0 2 1 1 1 2 2 3 3 2 2 2 2 3 3 3 3
5 5 5 5 5 5 6 5 3 3 3 3 4 4 4 3 2 2 1 1 2 2 1 1 2 3 1 1 3 3 3 3 2 2 2 3 4 4
6 4 3 3 3 3 3 3 3 3 3 2 3 4 4 4 3 2 1 2 2 2 2 1 1 1 3 3 3 2 3 3 2 2 2 4 4 4
5 4 5 3 3 3 3 3 3 3 3 4 4 4 4 4 4 3 2 2 3 1 2 3 2 0 0 2 3 3 2 2 1 1 1 4 4 3
3 6 6 4 2 2 2 3 4 4 4 4 4 5 5 5 5 4 3 2 3 3 2 2 2 2 2 2 1 2 2 1 2 1 1 3 4 5
6 6 4 2 2 2 4 4 5 5 5 6 6 5 5 5 6 5 5 4 2 2 3 2 1 2 3 3 3 2 1 1 1 2 2 2 3 5
4 3 3 4 4 4 4 4 4 5 6 6 5 6 6 6 6 6 5 6 4 3 3 3 3 2 2 1 2 3 2 1 2 3 2 2 1 2
3 4 4 5 4 4 4 4 5 4 5 6 5 6 7 7 8 9 8 7 6 5 4 2 2 0 1 1 2 3 4 3 2 4 4 4 2 2
4 4 4 4 4 3 4 5 6 6 6 6 6 6 6 6 7 7 8 9 9 8 7 4 2 1 1 2 3 3 1 4 4 3 2 5 7 6
Wind_Direction
285 282 278 276 277 287 309 331 279 281 281 251 232 130 108 100 124 108 115 122 127 131 135 143 153 162 174 185 194 198 203 206 211 216 221 224 226 232
275 267 265 265 275 287 287 278 225 227 261 271 282 67 109 126 131 116 119 131 133 139 144 152 162 171 183 197 205 210 214 215 216 219 222 225 228 233
267 276 287 298 305 308 305 283 254 226 241 259 233 160 128 123 138 136 139 149 155 162 167 174 182 190 199 208 215 220 222 223 223 222 223 225 229 233
316 341 342 342 338 319 299 278 265 243 238 262 259 198 174 159 158 164 159 174 174 186 193 198 202 205 208 214 220 225 228 229 229 228 228 229 231 233
25 24 15 10 358 342 320 304 288 276 245 249 255 199 167 165 165 181 189 174 203 195 201 210 214 216 216 217 220 224 227 229 229 229 231 233 236 238
54 49 37 29 12 349 350 350 329 314 293 262 250 199 160 160 155 169 195 310 285 304 203 212 217 219 223 223 222 222 223 225 227 230 232 235 238 241
65 66 58 41 30 16 16 3 359 357 339 310 273 185 147 156 169 160 171 342 330 345 340 268 210 211 215 224 225 223 222 223 225 229 232 234 236 237
65 67 67 37 14 4 5 24 28 23 7 11 16 50 61 96 110 127 140 153 269 4 31 339 350 294 262 210 216 216 220 226 230 234 235 232 229 229
58 50 46 33 15 350 332 353 37 36 34 41 49 47 48 36 70 111 123 159 212 332 42 324 349 341 30 52 54 59 190 222 234 237 236 230 224 222
42 40 46 31 11 0 49 60 60 41 37 47 52 56 61 54 64 89 113 144 229 197 118 263 302 299 62 56 28 326 269 237 223 224 224 220 215 213
68 48 36 31 11 14 28 31 35 46 68 74 74 82 86 76 66 139 153 173 199 146 122 183 223 219 198 192 202 234 255 251 233 215 212 206 201 197
106 79 49 30 19 18 19 22 14 353 344 328 173 193 200 194 237 304 355 1 315 215 165 216 213 169 219 175 169 185 218 234 228 220 211 199 184 193
60 62 36 16 13 8 8 16 350 324 309 311 300 155 161 157 181 171 46 38 29 51 161 208 227 152 210 111 146 183 202 207 204 206 206 195 190 216
42 35 21 3 355 350 354 348 346 347 343 358 14 25 45 44 57 107 137 144 192 187 190 191 202 195 180 153 141 189 220 230 213 185 157 156 166 174
35 23 355 349 342 340 343 337 338 342 347 353 350 348 355 343 298 243 215 210 234 206 136 168 243 220 198 177 161 180 192 220 212 167 164 175 168 158
7 350 334 327 327 325 325 327 322 315 320 320 320 320 321 312 304 325 323 253 194 171 126 67 40 43 22 294 157 162 166 164 173 154 124 101 87 85
339 325 323 321 324 323 320 316 317 316 320 326 328 321 317 315 305 296 287 308 311 174 174 179 42 59 82 41 61 86 104 97 96 83 98 108 101 98
336 304 295 285 282 291 303 309 310 325 346 342 330 322 321 320 319 316 304 292 293 278 175 169 171 260 48 45 49 47 57 104 130 145 148 138 129 115
279 278 281 282 290 304 321 331 341 351 349 337 330 330 328 325 321 315 304 304 310 308 276 190 182 202 222 213 317 29 89 59 355 338 68 128 145 159
254 263 272 295 335 4 6 4 358 354 352 345 337 334 331 325 318 316 314 306 295 294 305 301 242 229 225 209 182 185 148 139 96 39 16 30 80 96
292 309 353 19 22 15 11 4 355 350 347 340 332 332 335 332 328 325 324 322 307 271 260 258 255 269 275 201 163 166 157 141 132 132 96 32 81 146
0 13 17 12 6 4 3 355 345 344 342 339 349 0 2 1 357 353 349 340 332 324 306 295 298 340 47 351 284 211 174 166 125 114 131 146 135 121
28 15 358 347 352 2 4 359 352 349 356 357 0 0 358 356 355 357 356 354 352 352 347 333 353 26 52 55 7 340 246 182 173 171 201 194 185 190